Location: Unspecified
(35.7250°N, 0.0000°E)
Time: 13:37:06
(UTC+00:00)

Vanguard 1 - Pass Details

Date: 29 June 2019
Orbit: 655 x 3829 km, 34.2° (Epoch: 19 August)

Event Time Altitude Azimuth Distance (km) Brightness Sun altitude
Rises 20:34:09 0° 190° (S) 7,180 14.2 -13.0°
Reaches altitude 10° 20:40:37 10° 176° (S) 6,540 13.8 -14.0°
Maximum altitude 20:55:48 23° 133° (SE) 5,858 13.3 -16.2°
Drops below altitude 10° 21:10:47 10° 91° (E) 6,589 13.9 -18.3°
Sets 21:17:05 0° 79° (E) 7,262 14.2 -19.1°
